User: anonymous   Login
Location: Goheenville
(40.9070°N, 79.3720°W)
Time: 21:28:54
(UTC-04:00)
Language:

Cosmos 1727 Rocket - Orbit

View from above orbital plane
View from above orbital plane
View from above satellite
View from above satellite

Ground track
Ground track

The orbit data is extracted from the following two-line orbital elements,

1 16511U 86008B   17112.90836536 -.00000019 +00000-0 -35715-4 0  9995
2 16511 082.9429 260.9019 0025406 078.1433 032.2310 13.75807235568674
Epoch (UTC): 22 April 2017 21:48:02
Eccentricity: 0.0025406
inclination: 82.9429°
perigee height: 960 km
apogee height: 997 km
right ascension of ascending node: 260.9019°
argument of perigee: 78.1433°
revolutions per day: 13.75807235
mean anomaly at epoch: 32.2310°
orbit number at epoch: 56867

The dashed part of the orbit path shows where the satellite is in the earth's shadow,  

DLR